Torna al catalogo

STARLINK-11224

AttivoComunicazioniVLEO
NORAD 60304·PAYLOAD·🇺🇸 United States

Lanciato Jul 28, 2024 da Vandenberg Space Force Base

Loading…

Prossimi Passaggi (prossime 24 ore)

TLE

AggiornatoSource: CelesTrak SupGP

Epoca: Sep 14, 2026, 21:25 UTC

1 60304C 24133D   26257.89284722 -.00033674  00000+0 -27737-3 0  2570
2 60304  53.1572 293.5644 0001188  77.4846 151.0574 15.69727376    12

Traccia STARLINK-11224 in tempo reale con AllMySat

Download on the App Store